KC3BHK-2 Weather Reports


Display with metric or nautical units.
time (UTC)temp
F
wind
direction
speed
MPH
gust
MPH
rain 1hr
in
rain 24hr
in
rain mn
in
humidity
%
barometer
mb
20260903005849 70 122 0.0 0.0 0.00 0.00 0.00
20260903005344 70 122 0.0 0.0 0.00 0.00 0.00
20260903004839 70 122 0.0 0.0 0.00 0.00 0.00
20260903004334 72 122 0.0 0.0 0.00 0.00 0.00
20260903003829 71 122 0.0 0.0 0.00 0.00 0.00
20260903003321 71 122 0.0 0.0 0.00 0.00 0.00
20260903002816 72 122 0.0 0.0 0.00 0.00 0.00
20260903002312 72 122 0.0 0.0 0.00 0.00 0.00
20260903001807 72 122 0.0 0.0 0.00 0.00 0.00
20260903001302 72 122 0.0 0.0 0.00 0.00 0.00
20260903000757 73 122 0.0 0.0 0.00 0.00 0.00
20260903000249 73 122 0.0 0.0 0.00 0.00 0.00
20260902235745 73 122 0.0 0.0 0.00 0.00 0.00
20260902235239 74 122 0.0 0.0 0.00 0.00 0.00
20260902234733 74 122 0.0 0.0 0.00 0.00 0.00
20260902234228 75 122 0.0 0.0 0.00 0.00 0.00
20260902233724 75 122 0.0 0.0 0.00 0.00 0.00
20260902233216 76 122 0.0 4.0 0.00 0.00 0.00
20260902232710 76 150 3.0 4.0 0.00 0.00 0.00
20260902232205 76 170 2.0 3.0 0.00 0.00 0.00
20260902231701 76 179 2.0 3.0 0.00 0.00 0.00
20260902231156 77 120 0.0 5.0 0.00 0.00 0.00
20260902230651 78 155 2.0 6.0 0.00 0.00 0.00
20260902230144 79 184 2.0 5.0 0.00 0.00 0.00
20260902225134 80 152 2.0 4.0 0.00 0.00 0.00
20260902224629 80 156 3.0 4.0 0.00 0.00 0.00
20260902224124 80 143 1.0 3.0 0.00 0.00 0.00
20260902223620 80 160 2.0 4.0 0.00 0.00 0.00
20260902223112 80 139 0.0 5.0 0.00 0.00 0.00
20260902222607 79 188 3.0 5.0 0.00 0.00 0.00
20260902222102 81 181 3.0 6.0 0.00 0.00 0.00
20260902221558 82 170 2.0 7.0 0.00 0.00 0.00
20260902221052 83 179 3.0 7.0 0.00 0.00 0.00
20260902220547 84 186 2.0 6.0 0.00 0.00 0.00
20260902220040 85 143 3.0 5.0 0.00 0.00 0.00
20260902215535 85 125 2.0 7.0 0.00 0.00 0.00
20260902215030 84 187 5.0 7.0 0.00 0.00 0.00
20260902214525 86 51 1.0 5.0 0.00 0.00 0.00
20260902214020 86 128 3.0 5.0 0.00 0.00 0.00
20260902213516 87 142 2.0 7.0 0.00 0.00 0.00
20260902212503 87 84 1.0 5.0 0.00 0.00 0.00
20260902211454 88 121 2.0 5.0 0.00 0.00 0.00
20260902210949 88 105 0.0 6.0 0.00 0.00 0.00
20260902210444 87 72 2.0 5.0 0.00 0.00 0.00
20260902205432 85 162 1.0 5.0 0.00 0.00 0.00
20260902204927 86 145 1.0 5.0 0.00 0.00 0.00
20260902204422 85 197 4.0 4.0 0.00 0.00 0.00
20260902203917 83 125 1.0 4.0 0.00 0.00 0.00
20260902203412 80 155 3.0 5.0 0.00 0.00 0.00
20260902202904 79 149 4.0 0.0 0.00 0.00 0.00
20260902202400 78 195 0.0 2.0 0.00 0.00 0.00
20260902201855 77 195 0.0 0.0 0.00 0.00 0.00
20260902201350 76 149 0.0 4.0 0.00 0.00 0.00
20260902200846 76 149 0.0 6.0 0.00 0.00 0.00
20260902200341 75 187 6.0 5.0 0.00 0.00 0.00
20260902195329 76 219 4.0 7.0 0.00 0.00 0.00
20260902194319 76 238 5.0 5.0 0.00 0.00 0.00
20260902193815 77 228 3.0 0.0 0.00 0.00 0.00
20260902193310 76 122 0.0 0.0 0.00 0.00 0.00
20260902192801 78 122 0.0 0.0 0.00 0.00 0.00
20260902192257 76 122 0.0 0.0 0.00 0.00 0.00
20260902191752 76 122 0.0 0.0 0.00 0.00 0.00
20260902191247 75 122 0.0 0.0 0.00 0.00 0.00
20260902190742 75 122 0.0 0.0 0.00 0.00 0.00
20260902190237 75 122 0.0 0.0 0.00 0.00 0.00
20260902185730 75 122 0.0 2.0 0.00 0.00 0.00
20260902185225 75 122 0.0 5.0 0.00 0.00 0.00
20260902184720 78 129 2.0 5.0 0.00 0.00 0.00
20260902184215 79 122 2.0 5.0 0.00 0.00 0.00
20260902183206 78 65 0.0 2.0 0.00 0.00 0.00
20260902182658 77 118 2.0 3.0 0.00 0.00 0.00
20260902182153 78 98 2.0 3.0 0.00 0.00 0.00
20260902181647 77 84 1.0 3.0 0.00 0.00 0.00
20260902181142 77 87 3.0 9.0 0.00 0.00 0.00
20260902180637 78 84 5.0 7.0 0.00 0.00 0.00
20260902180132 80 121 3.0 5.0 0.00 0.00 0.00
20260902175120 78 97 2.0 9.0 0.00 0.00 0.00
20260902174615 80 120 5.0 5.0 0.00 0.00 0.00
20260902174110 80 51 2.0 9.0 0.00 0.00 0.00
20260902173605 78 13 2.0 7.0 0.00 0.00 0.00
20260902173101 77 23 1.0 6.0 0.00 0.00 0.00
20260902172551 74 76 1.0 6.0 0.00 0.00 0.00
20260902172046 71 41 1.0 7.0 0.00 0.00 0.00
20260902171542 70 42 0.0 6.0 0.00 0.00 0.00
20260902171037 69 56 1.0 10.0 0.00 0.00 0.00
20260902170532 71 15 5.0 13.0 0.00 0.00 0.00
20260902170027 77 24 6.0 18.0 0.00 0.00 0.00
20260902165520 82 269 7.0 13.0 0.00 0.00 0.00
20260902165015 84 65 1.0 2.0 0.00 0.00 0.00
20260902164510 86 353 0.0 0.0 0.00 0.00 0.00
20260902164005 84 353 0.0 0.0 0.00 0.00 0.00
20260902162446 86 135 0.0 0.0 0.00 0.00 0.00
20260902161942 87 135 0.0 0.0 0.00 0.00 0.00
20260902161437 85 135 0.0 2.0 0.00 0.00 0.00
20260902160932 85 135 0.0 2.0 0.00 0.00 0.00
20260902160426 87 158 0.0 1.0 0.00 0.00 0.00
20260902155922 87 134 0.0 4.0 0.00 0.00 0.00
20260902155414 86 141 2.0 0.0 0.00 0.00 0.00
20260902154909 87 165 0.0 0.0 0.00 0.00 0.00
20260902154405 88 165 0.0 2.0 0.00 0.00 0.00
20260902153900 89 141 1.0 1.0 0.00 0.00 0.00
20260902153355 89 120 0.0 4.0 0.00 0.00 0.00
20260902152850 88 197 3.0 3.0 0.00 0.00 0.00
20260902152342 88 35 0.0 0.0 0.00 0.00 0.00
20260902150828 88 18 0.0 2.0 0.00 0.00 0.00
20260902150323 87 20 0.0 0.0 0.00 0.00 0.00
20260902145819 87 229 0.0 3.0 0.00 0.00 0.00
20260902145310 88 90 0.0 3.0 0.00 0.00 0.00
20260902144805 86 56 0.0 3.0 0.00 0.00 0.00
20260902144300 86 153 0.0 3.0 0.00 0.00 0.00
20260902143756 85 257 2.0 4.0 0.00 0.00 0.00
20260902143251 87 197 3.0 3.0 0.00 0.00 0.00
20260902142746 88 111 1.0 3.0 0.00 0.00 0.00
20260902142238 86 21 0.0 4.0 0.00 0.00 0.00
20260902141734 85 104 2.0 2.0 0.00 0.00 0.00
20260902141229 84 166 0.0 1.0 0.00 0.00 0.00
20260902140723 84 166 0.0 4.0 0.00 0.00 0.00
20260902140218 84 148 2.0 5.0 0.00 0.00 0.00
20260902135714 85 114 2.0 3.0 0.00 0.00 0.00
20260902135205 83 138 2.0 5.0 0.00 0.00 0.00
20260902134700 84 135 5.0 3.0 0.00 0.00 0.00
20260902134156 82 121 0.0 4.0 0.00 0.00 0.00
20260902133651 82 104 3.0 4.0 0.00 0.00 0.00
20260902133146 82 155 0.0 0.0 0.00 0.00 0.00
20260902132641 81 155 0.0 1.0 0.00 0.00 0.00
20260902132133 81 155 0.0 1.0 0.00 0.00 0.00
20260902131628 80 228 0.0 3.0 0.00 0.00 0.00
20260902131123 80 278 0.0 4.0 0.00 0.00 0.00
20260902130618 80 187 0.0 0.0 0.00 0.00 0.00
20260902130113 79 187 0.0 2.0 0.00 0.00 0.00
20260902125609 79 232 2.0 1.0 0.00 0.00 0.00
20260902124353 77 108 0.0 0.0 0.00 0.00 0.00
20260902124051 77 108 0.0 0.0 0.00 0.00 0.00
20260902123546 77 108 0.0 0.0 0.00 0.00 0.00
20260902123536 75 108 0.0 0.0 0.00 0.00 0.00
20260902123041 75 108 0.0 0.0 0.00 0.00 0.00
20260902122537 75 108 0.0 0.0 0.00 0.00 0.00
20260902122029 74 108 0.0 0.0 0.00 0.00 0.00
20260902121524 73 108 0.0 0.0 0.00 0.00 0.00
20260902121019 74 108 0.0 0.0 0.00 0.00 0.00
20260902120514 73 108 0.0 0.0 0.00 0.00 0.00
20260902115505 71 108 0.0 0.0 0.00 0.00 0.00
20260902114957 72 108 0.0 0.0 0.00 0.00 0.00
20260902114452 70 108 0.0 0.0 0.00 0.00 0.00
20260902113947 70 108 0.0 0.0 0.00 0.00 0.00
20260902113442 70 108 0.0 0.0 0.00 0.00 0.00
20260902112937 71 108 0.0 0.0 0.00 0.00 0.00
20260902112432 69 108 0.0 0.0 0.00 0.00 0.00
20260902111924 69 108 0.0 0.0 0.00 0.00 0.00
20260902111420 71 108 0.0 0.0 0.00 0.00 0.00
20260902110915 70 108 0.0 0.0 0.00 0.00 0.00
20260902110410 69 108 0.0 0.0 0.00 0.00 0.00
20260902105905 69 108 0.0 0.0 0.00 0.00 0.00
20260902105400 70 108 0.0 0.0 0.00 0.00 0.00
20260902104852 70 108 0.0 0.0 0.00 0.00 0.00
20260902104348 71 108 0.0 0.0 0.00 0.00 0.00
20260902103338 69 108 0.0 0.0 0.00 0.00 0.00
20260902102833 70 108 0.0 0.0 0.00 0.00 0.00
20260902102328 71 108 0.0 0.0 0.00 0.00 0.00
20260902101821 71 108 0.0 0.0 0.00 0.00 0.00
20260902101316 70 108 0.0 0.0 0.00 0.00 0.00
20260902100811 70 108 0.0 0.0 0.00 0.00 0.00
20260902100306 71 108 0.0 0.0 0.00 0.00 0.00
20260902095802 69 108 0.0 0.0 0.00 0.00 0.00
20260902095257 72 108 0.0 0.0 0.00 0.00 0.00
20260902094748 71 108 0.0 0.0 0.00 0.00 0.00
20260902094243 71 108 0.0 0.0 0.00 0.00 0.00
20260902093738 71 108 0.0 0.0 0.00 0.00 0.00
20260902093234 71 108 0.0 0.0 0.00 0.00 0.00
20260902092729 71 108 0.0 0.0 0.00 0.00 0.00
20260902091716 72 108 0.0 0.0 0.00 0.00 0.00
20260902091212 72 108 0.0 0.0 0.00 0.00 0.00
20260902090707 72 108 0.0 0.0 0.00 0.00 0.00
20260902090202 72 108 0.0 0.0 0.00 0.00 0.00
20260902085656 73 108 0.0 0.0 0.00 0.00 0.00
20260902084643 73 108 0.0 0.0 0.00 0.00 0.00
20260902084139 72 108 0.0 0.0 0.00 0.00 0.00
20260902083634 72 108 0.0 0.0 0.00 0.00 0.00
20260902083129 72 108 0.0 0.0 0.00 0.00 0.00
20260902082624 72 108 0.0 0.0 0.00 0.00 0.00
20260902082119 73 108 0.0 1.0 0.00 0.00 0.00
20260902081612 72 128 0.0 0.0 0.00 0.00 0.00
20260902081107 73 128 0.0 0.0 0.00 0.00 0.00
20260902080602 72 128 0.0 0.0 0.00 0.00 0.00
20260902080057 72 128 0.0 1.0 0.00 0.00 0.00
20260902075552 73 129 0.0 1.0 0.00 0.00 0.00
20260902075047 73 117 0.0 3.0 0.00 0.00 0.00
20260902074540 73 131 3.0 3.0 0.00 0.00 0.00
20260902074035 72 120 3.0 5.0 0.00 0.00 0.00
20260902073530 72 117 2.0 5.0 0.00 0.00 0.00
20260902073025 71 125 4.0 6.0 0.00 0.00 0.00
20260902072520 72 262 0.0 0.0 0.00 0.00 0.00
20260902072016 72 262 0.0 0.0 0.00 0.00 0.00
20260902071507 71 262 0.0 0.0 0.00 0.00 0.00
20260902071002 71 262 0.0 0.0 0.00 0.00 0.00
20260902070457 70 262 0.0 0.0 0.00 0.00 0.00
20260902065952 71 262 0.0 0.0 0.00 0.00 0.00
20260902065448 71 262 0.0 0.0 0.00 0.00 0.00
20260902064943 71 262 0.0 0.0 0.00 0.00 0.00
20260902064435 71 262 0.0 0.0 0.00 0.00 0.00
20260902063424 72 262 0.0 0.0 0.00 0.00 0.00
20260902062919 73 262 0.0 0.0 0.00 0.00 0.00
20260902062415 72 262 0.0 0.0 0.00 0.00 0.00
20260902061910 72 262 0.0 0.0 0.00 0.00 0.00
20260902061401 73 262 0.0 0.0 0.00 0.00 0.00
20260902060856 72 262 0.0 2.0 0.00 0.00 0.00
20260902060351 74 262 0.0 0.0 0.00 0.00 0.00
20260902055847 73 42 0.0 0.0 0.00 0.00 0.00
20260902055342 73 42 0.0 0.0 0.00 0.00 0.00
20260902054329 73 42 0.0 0.0 0.00 0.00 0.00
20260902053825 74 42 0.0 2.0 0.00 0.00 0.00
20260902053320 74 79 0.0 1.0 0.00 0.00 0.00
20260902052815 75 79 0.0 1.0 0.00 0.00 0.00
20260902052310 75 20 0.0 5.0 0.00 0.00 0.00
20260902051258 75 59 0.0 8.0 0.00 0.00 0.00
20260902050753 76 58 2.0 5.0 0.00 0.00 0.00
20260902050248 77 347 2.0 5.0 0.00 0.00 0.00
20260902045744 76 343 5.0 6.0 0.00 0.00 0.00
20260902045239 78 28 2.0 8.0 0.00 0.00 0.00
20260902044734 78 23 6.0 14.0 0.00 0.00 0.00
20260902044226 79 8 2.0 12.0 0.00 0.00 0.00
20260902043721 79 62 2.0 11.0 0.00 0.00 0.00
20260902043217 80 15 3.0 12.0 0.00 0.00 0.00
20260902042712 82 113 6.0 8.0 0.00 0.00 0.00
20260902042207 81 52 1.0 4.0 0.00 0.00 0.00
20260902041702 80 41 0.0 6.0 0.00 0.00 0.00
20260902041154 80 66 1.0 5.0 0.00 0.00 0.00
20260902040647 81 28 1.0 10.0 0.00 0.00 0.00
20260902040143 82 17 1.0 9.0 0.00 0.00 0.00
20260902035638 82 295 3.0 10.0 0.00 0.00 0.00
20260902035133 82 318 4.0 9.0 0.00 0.00 0.00
20260902034121 82 257 2.0 14.0 0.00 0.00 0.00
20260902033616 82 287 3.0 12.0 0.00 0.00 0.00
20260902033111 80 281 8.0 8.0 0.00 0.00 0.00
20260902032607 80 262 2.0 7.0 0.00 0.00 0.00
20260902032102 80 287 5.0 6.0 0.00 0.00 0.00
20260902031050 81 0 3.0 8.0 0.00 0.00 0.00
20260902030545 81 293 5.0 8.0 0.00 0.00 0.00
20260902030040 81 295 3.0 9.0 0.00 0.00 0.00
20260902025535 81 291 6.0 8.0 0.00 0.00 0.00
20260902025030 82 274 5.0 8.0 0.00 0.00 0.00
20260902024526 81 260 6.0 9.0 0.00 0.00 0.00
20260902024018 82 262 7.0 9.0 0.00 0.00 0.00
20260902023513 81 270 6.0 10.0 0.00 0.00 0.00
20260902023009 82 280 4.0 9.0 0.00 0.00 0.00
20260902022504 82 287 3.0 8.0 0.00 0.00 0.00
20260902021959 82 308 5.0 10.0 0.00 0.00 0.00
20260902021454 83 281 6.0 10.0 0.00 0.00 0.00
20260902020947 83 302 6.0 11.0 0.00 0.00 0.00
20260902020441 82 281 7.0 11.0 0.00 0.00 0.00
20260902015936 83 314 6.0 13.0 0.00 0.00 0.00
20260902015431 82 271 4.0 12.0 0.00 0.00 0.00
20260902014927 82 308 4.0 11.0 0.00 0.00 0.00
20260902014422 83 298 8.0 11.0 0.00 0.00 0.00
20260902013914 82 285 8.0 10.0 0.00 0.00 0.00
20260902013409 83 325 5.0 12.0 0.00 0.00 0.00
20260902012905 85 250 3.0 13.0 0.00 0.00 0.00
20260902012400 84 267 8.0 12.0 0.00 0.00 0.00
20260902011855 85 266 3.0 15.0 0.00 0.00 0.00
20260902010338 83 298 3.0 7.0 0.00 0.00 0.00